[[{"header":{"parameterUnit":"m.s-1","parameterCategory":1,"la1":30.2991,"la2":30.254,"lo1":-89.0895,"lo2":-89.0444,"dy":0.0017,"dx":0.0017,"nx":28,"ny":28,"refTime":"2025-04-20T03:00:00:Z","depth":0,"parameterNumber":2,"parameterNumberName":"U-component_of_WINDS"},"data":[0,0,0,0,0,0,0,0,0,0,0,0,0,0,0,0,0,0,0,0,0,0,0,0,0,0,0,0,0,0,0,0,0,0,0,0,0,0,0,0,0,0,0,0,0,0,0,0,0,0,0,0,0,0,0,0,0,0,-5.6399,-5.6399,0,-5.6416,-5.6416,-5.6417,-5.6292,-5.6288,-5.6285,-5.6281,-5.6298,-5.6301,-5.6305,0,0,0,0,0,0,0,0,0,0,0,0,0,-5.626,-5.6264,-5.6399,-5.6399,-5.64,-5.6416,-5.6416,-5.6417,-5.6292,-5.6288,-5.6284,-5.628,-5.6297,-5.6301,-5.6305,0,0,0,0,0,0,0,0,0,0,0,0,0,-5.6303,-5.6265,-5.6399,-5.634,-5.6334,-5.6416,-5.6416,-5.6417,-5.6293,-5.6288,-5.6283,-5.6278,-5.6295,-5.6301,-5.6306,-5.6445,0,0,-5.6323,-5.6325,0,0,0,0,0,0,0,0,-5.6301,-5.6309,-5.6348,-5.6344,-5.6338,-5.6346,-5.6373,-5.6426,-5.6295,-5.6309,-5.6281,-5.6275,-5.6318,-5.6322,-5.6336,-5.6446,-5.6447,-5.6323,-5.6327,-5.6329,-5.6331,0,0,0,0,0,0,0,-5.6298,-5.6307,-5.6406,-5.6349,-5.6343,-5.6313,-5.6313,-5.6383,-5.6343,-5.6307,-5.6298,-5.6302,-5.6314,-5.6331,-5.6336,-5.6447,-5.6323,-5.6328,-5.6332,-5.6334,-5.6674,-5.6679,0,0,0,0,0,0,-5.6303,-5.6306,-5.6405,-5.6406,-5.6306,-5.6319,-5.632,-5.6349,-5.6342,-5.6335,-5.6306,-5.6296,-5.6324,-5.6329,-5.6336,-5.6498,-5.6329,-5.6334,-5.6338,-5.6668,-5.6675,-5.6681,0,0,0,0,0,0,-5.6301,-5.6313,-5.6404,-5.6354,-5.6363,-5.6327,-5.6361,-5.6352,-5.6368,-5.6341,-5.6333,-5.6331,-5.632,-5.6328,-5.6419,-5.6497,-5.6337,-5.6342,-5.6661,-5.667,-5.6678,-5.6824,0,0,0,0,0,0,-5.6297,-5.6313,-5.6365,-5.6356,-5.6366,-5.6488,-5.6366,-5.6356,-5.6379,-5.6365,-5.6362,-5.6356,-5.6317,-5.6412,-5.6425,-5.6502,-5.6346,-5.6654,-5.6665,-5.6675,-5.6812,-5.6837,-5.6858,0,0,0,0,0,-5.6293,-5.6405,-5.6368,-5.6381,-5.643,-5.6492,-5.6498,-5.6451,-5.6385,-5.6437,-5.642,-5.6356,-5.6488,-5.6422,-5.6436,-5.6516,-5.6649,-5.6662,-5.6674,-5.6802,-5.6832,-5.6857,0,0,0,0,0,0,-5.6423,-5.6402,-5.6361,-5.6474,-5.6486,-5.6471,-5.6535,-5.6484,-5.6514,-5.65,-5.6441,-5.6441,-5.6543,-5.6539,-5.6466,-5.6651,-5.6557,-5.6573,-5.6649,-5.6677,-5.67,-5.6697,-5.6351,0,0,0,0,0,-5.6465,-5.6517,-5.6497,-5.6598,-5.6606,-5.6571,-5.6596,-5.6559,-5.6569,-5.6573,-5.6562,-5.6574,-5.6618,-5.6648,-5.6687,-5.6813,-5.681,-5.6875,-5.6897,-5.6916,-5.693,-5.6997,-5.7025,-5.6723,-5.6723,-5.6723,0,0,-5.6551,-5.6547,-5.6583,-5.6624,-5.6629,-5.6685,-5.6575,-5.6638,-5.6679,-5.6582,-5.6667,-5.6661,-5.6671,-5.678,-5.6828,-5.678,-5.7014,-5.6933,-5.6948,-5.6951,-5.7013,-5.7042,-5.7067,-5.6732,-5.673,-5.6729,0,0,-5.6737,-5.6739,-5.6824,-5.6832,-5.6842,-5.6818,-5.6839,-5.6833,-5.6825,-5.6911,-5.684,-5.6888,-5.6965,-5.6975,-5.699,-5.7186,-5.7128,-5.72,-5.7318,-5.7384,-5.7408,-5.7429,-5.7497,-5.7523,-5.7215,-5.7215,-5.7216,0,-5.6842,-5.6923,-5.6874,-5.6942,-5.6963,-5.6881,-5.6966,-5.6977,-5.6999,-5.7015,-5.6962,-5.7058,-5.7059,-5.717,-5.7218,-5.7234,-5.7256,-5.7198,-5.7409,-5.7429,-5.7447,-5.7512,-5.7539,-5.7224,-5.7223,-5.7222,-5.7221,0,-5.7053,-5.7111,-5.7178,-5.7203,-5.7231,-5.7309,-5.7271,-5.7307,-5.7269,-5.7252,-5.7341,-5.734,-5.7377,-5.7402,-5.7365,-5.7509,-5.7479,-5.7419,-5.7322,-5.7486,-5.7546,-5.757,-5.7236,-5.7233,-5.7231,-5.7228,0,0,-5.7315,-5.7315,-5.734,-5.7351,-5.7359,-5.7402,-5.7477,-5.7515,-5.7546,-5.7566,-5.7627,-5.7697,-5.7641,-5.7659,-5.7623,-5.7682,-5.7837,-5.7614,-5.7614,-5.7654,-5.7996,-5.8039,-5.8069,-5.7801,-5.7805,-5.7809,-5.7994,0,-5.7495,-5.7622,-5.7582,-5.771,-5.7763,-5.7688,-5.7753,-5.7765,-5.7752,-5.7796,-5.7781,-5.7831,-5.7755,-5.7765,-5.7821,-5.7807,-5.7904,-5.7793,-5.7856,-5.7859,-5.7853,-5.81,-5.8146,-5.8321,-5.8018,-5.8022,-5.8024,0,-5.772,-5.775,-5.7884,-5.7885,-5.7906,-5.7965,-5.7998,-5.8041,-5.8054,-5.8041,-5.8063,-5.8017,-5.8091,-5.7998,-5.8099,-5.8025,-5.8049,-5.8047,-5.8052,-5.8054,-5.7949,-5.8106,-5.8375,-5.8401,-5.8061,-5.8058,-5.8056,0,-5.7897,-5.7971,-5.8061,-5.8073,-5.8076,-5.812,-5.8123,-5.8132,-5.8158,-5.8188,-5.8204,-5.8243,-5.8263,-5.8294,-5.826,-5.8195,-5.8367,-5.827,-5.8357,-5.8358,-5.8393,-5.8391,-5.8667,-5.8414,-5.8414,-5.8413,-5.8413,0,-5.81,-5.8184,-5.814,-5.8195,-5.8289,-5.8244,-5.8337,-5.8332,-5.8341,-5.8394,-5.8334,-5.8385,-5.8337,-5.8385,-5.8359,-5.8447,-5.8458,-5.8449,-5.844,-5.8452,-5.8453,-5.8465,-5.8451,-5.842,-5.8419,-5.8417,-5.8416,0,-5.831,-5.8285,-5.8377,-5.8375,-5.8376,-5.8445,-5.8442,-5.8494,-5.8478,-5.8547,-5.856,-5.8536,-5.8589,-5.8559,-5.8614,-5.8597,-5.8711,-5.8687,-5.8706,-5.8699,-5.8787,-5.8778,-5.9078,-5.9115,-5.884,-5.8843,-5.8845,0,-5.844,-5.8503,-5.8509,-5.854,-5.8548,-5.86,-5.8628,-5.8588,-5.8619,-5.8641,-5.869,-5.8739,-5.8774,-5.8864,-5.8851,-5.8893,-5.8868,-5.8971,-5.8874,-5.8885,-5.8868,-5.8863,-5.8869,-5.8989,-5.8992,-5.8995,-5.8997,0,-5.8672,-5.8658,-5.8699,-5.8739,-5.8774,-5.8802,-5.8826,-5.8856,-5.8816,-5.8855,-5.8909,-5.8937,-5.8995,-5.9044,-5.9081,-5.9084,-5.9035,-5.9029,-5.905,-5.9062,-5.907,-5.9065,-5.8757,-5.9021,-5.9018,-5.9016,-5.9015,-5.9014,-5.8845,-5.8898,-5.8911,-5.8961,-5.8975,-5.8999,-5.9048,-5.904,-5.9085,-5.9128,-5.9103,-5.9167,-5.9182,-5.9226,-5.9238,-5.9288,-5.9246,-5.9278,-5.9286,-5.9294,-5.9305,-5.9065,-5.9294,-5.9294,-5.9293,-5.9293,-5.9292,0,-5.9072,-5.9078,-5.9125,-5.9161,-5.9201,-5.9153,-5.9178,-5.9214,-5.9271,-5.929,-5.9328,-5.9392,-5.944,-5.9434,-5.9478,-5.9519,-5.9498,-5.9532,-5.9527,-5.9529,-5.934,-5.9316,-5.9549,-5.9549,-5.9549,-5.9549,-5.9549,-5.9549,-5.9195,-5.9283,-5.9271,-5.9367,-5.9372,-5.9435,-5.9453,-5.9476,-5.949,-5.9565,-5.9605,-5.9601,-5.961,-5.9655,-5.9698,-5.9695,-5.9713,-5.9756,-5.9745,-5.9568,-5.9542,-5.9518,-5.9494,-5.9761,-5.9761,-5.9929,-5.993,-5.9931]},{"header":{"parameterUnit":"m.s-1","parameterCategory":1,"la1":30.2991,"la2":30.254,"lo1":-89.0895,"lo2":-89.0444,"dy":0.0017,"dx":0.0017,"nx":28,"ny":28,"refTime":"2025-04-20T03:00:00:Z","depth":0,"parameterNumber":3,"parameterNumberName":"V-component_of_WINDS"},"data":[0,0,0,0,0,0,0,0,0,0,0,0,0,0,0,0,0,0,0,0,0,0,0,0,0,0,0,0,0,0,0,0,0,0,0,0,0,0,0,0,0,0,0,0,0,0,0,0,0,0,0,0,0,0,0,0,0,0,2.1265,2.1265,0,2.1241,2.1241,2.1241,2.1205,2.1204,2.1204,2.1203,2.1175,2.1174,2.1174,0,0,0,0,0,0,0,0,0,0,0,0,0,2.1278,2.1278,2.1265,2.1265,2.1264,2.1241,2.1241,2.1241,2.1205,2.1204,2.1204,2.1203,2.1175,2.1174,2.1174,0,0,0,0,0,0,0,0,0,0,0,0,0,2.1265,2.1278,2.1265,2.1244,2.1242,2.1241,2.1241,2.124,2.1205,2.1204,2.1203,2.1202,2.1175,2.1174,2.1174,2.1191,0,0,2.1173,2.1173,0,0,0,0,0,0,0,0,2.1266,2.1264,2.1247,2.1245,2.1243,2.1225,2.1235,2.1224,2.1205,2.1219,2.1203,2.1202,2.1192,2.119,2.1188,2.119,2.1188,2.1173,2.1173,2.1173,2.1173,0,0,0,0,0,0,0,2.1267,2.1265,2.1255,2.1247,2.1245,2.1235,2.1232,2.1233,2.1211,2.1218,2.1215,2.1213,2.119,2.1188,2.1187,2.1188,2.1173,2.1173,2.1173,2.1173,2.1205,2.1206,0,0,0,0,0,0,2.1271,2.1266,2.1256,2.1255,2.1253,2.1236,2.1232,2.1232,2.1211,2.1207,2.1214,2.1211,2.1189,2.1187,2.1185,2.1205,2.1173,2.1173,2.1173,2.1204,2.1205,2.1206,0,0,0,0,0,0,2.1271,2.1271,2.1257,2.126,2.1257,2.1237,2.1236,2.1232,2.1229,2.1208,2.1203,2.1215,2.1188,2.1186,2.1191,2.1204,2.1173,2.1172,2.1203,2.1204,2.1206,2.1244,0,0,0,0,0,0,2.1272,2.1271,2.1277,2.126,2.1257,2.1263,2.1237,2.1232,2.1229,2.1226,2.1208,2.1204,2.1187,2.1191,2.119,2.1203,2.1172,2.1202,2.1204,2.1205,2.1241,2.1246,2.1251,0,0,0,0,0,2.1273,2.1287,2.1278,2.1277,2.1265,2.1264,2.1262,2.1244,2.123,2.1237,2.1223,2.1205,2.1203,2.1192,2.1191,2.1203,2.1201,2.1203,2.1205,2.1239,2.1245,2.1251,0,0,0,0,0,0,2.1304,2.1284,2.1274,2.1283,2.1276,2.1258,2.1265,2.1251,2.1245,2.1242,2.1218,2.1215,2.1223,2.1213,2.1202,2.122,2.1199,2.1201,2.1225,2.1231,2.1236,2.1237,2.1172,0,0,0,0,0,2.1312,2.1314,2.1297,2.1307,2.1304,2.1286,2.1284,2.1271,2.1262,2.1258,2.1245,2.1235,2.1233,2.1231,2.1228,2.124,2.1236,2.1248,2.1253,2.1257,2.1259,2.1267,2.1272,2.1214,2.1214,2.1214,0,0,2.1328,2.1318,2.132,2.1313,2.1306,2.1308,2.1283,2.1285,2.1287,2.1258,2.1262,2.1253,2.1241,2.125,2.1254,2.1243,2.1275,2.126,2.1264,2.1263,2.127,2.1275,2.128,2.1216,2.1215,2.1215,0,0,2.136,2.1352,2.1361,2.1355,2.1345,2.1334,2.1336,2.1321,2.1314,2.1319,2.1298,2.1299,2.1295,2.1288,2.1284,2.1317,2.13,2.1317,2.1341,2.1349,2.1353,2.1357,2.137,2.1375,2.1319,2.1319,2.1319,0,2.1381,2.1384,2.1367,2.1372,2.137,2.1347,2.1356,2.135,2.1339,2.1338,2.1326,2.1323,2.1313,2.1321,2.133,2.1327,2.1329,2.1318,2.1355,2.1358,2.1362,2.1373,2.1378,2.1321,2.1321,2.132,2.132,0,2.1411,2.1414,2.1422,2.1415,2.1414,2.1421,2.1405,2.1405,2.1393,2.1383,2.1389,2.1377,2.1372,2.1373,2.136,2.138,2.1374,2.1359,2.1338,2.137,2.138,2.1385,2.1324,2.1323,2.1322,2.1322,0,0,2.1458,2.1445,2.1448,2.1445,2.1435,2.1436,2.1443,2.144,2.1441,2.1435,2.144,2.1439,2.1426,2.1422,2.1408,2.1415,2.1444,2.14,2.1399,2.1409,2.1467,2.1479,2.1484,2.1434,2.1434,2.1435,2.1468,0,2.1487,2.1499,2.1485,2.1499,2.1503,2.1482,2.1488,2.1482,2.1474,2.1475,2.1464,2.1465,2.1447,2.1444,2.1451,2.1439,2.1455,2.1437,2.1438,2.1438,2.1441,2.1489,2.1501,2.1533,2.1472,2.1473,2.1474,0,2.1522,2.1521,2.1536,2.1527,2.1528,2.1534,2.1531,2.1533,2.1526,2.1519,2.1517,2.1502,2.1508,2.1489,2.1497,2.1484,2.1484,2.1479,2.148,2.1479,2.1457,2.1489,2.1542,2.1547,2.148,2.1479,2.1479,0,2.1556,2.1558,2.1568,2.1566,2.1556,2.1561,2.1556,2.1549,2.1549,2.1547,2.1547,2.1545,2.1543,2.1542,2.1527,2.1514,2.1538,2.1517,2.1532,2.1533,2.1537,2.1536,2.159,2.1537,2.1537,2.1537,2.1537,0,2.1589,2.1599,2.1583,2.1589,2.1601,2.1586,2.1597,2.159,2.1585,2.159,2.1572,2.1576,2.1556,2.1559,2.1547,2.1557,2.1556,2.155,2.1547,2.1552,2.1553,2.1551,2.1548,2.1538,2.1538,2.1538,2.1538,0,2.1628,2.1617,2.1627,2.1618,2.1617,2.1625,2.1617,2.1623,2.1614,2.162,2.1621,2.1607,2.1609,2.1595,2.1594,2.1586,2.1601,2.1594,2.1604,2.1602,2.1618,2.1617,2.1672,2.1679,2.1622,2.1622,2.1623,0,2.1649,2.1657,2.1651,2.1654,2.1651,2.1655,2.1656,2.1642,2.1644,2.1639,2.1645,2.1647,2.1647,2.1651,2.1641,2.164,2.1633,2.1653,2.1633,2.1638,2.1634,2.1634,2.1635,2.1656,2.1657,2.1658,2.1658,0,2.1689,2.1685,2.1688,2.169,2.1692,2.1692,2.1691,2.1694,2.1679,2.1682,2.1686,2.1686,2.1687,2.1689,2.1687,2.1682,2.1668,2.1665,2.1669,2.1673,2.1679,2.1677,2.1615,2.1663,2.1663,2.1662,2.1662,2.1662,2.172,2.1727,2.1725,2.1729,2.1728,2.1728,2.1734,2.1728,2.1731,2.1731,2.1723,2.1729,2.1724,2.1721,2.1718,2.1722,2.1712,2.1717,2.1718,2.172,2.1723,2.1679,2.1721,2.1721,2.1721,2.1721,2.172,0,2.176,2.1758,2.1763,2.1764,2.1768,2.1757,2.1756,2.1759,2.1765,2.1763,2.1765,2.177,2.1772,2.1764,2.1765,2.177,2.1764,2.1771,2.177,2.1769,2.1731,2.1728,2.1776,2.1776,2.1776,2.1776,2.1776,2.1776,2.1781,2.1793,2.1789,2.1801,2.1798,2.1805,2.1806,2.1807,2.1805,2.1812,2.1815,2.1811,2.1806,2.1808,2.181,2.1807,2.1808,2.1818,2.1813,2.1777,2.1772,2.1766,2.1764,2.1818,2.1818,2.1851,2.1851,2.1851]}]]